Location: Quaker Farms
(41.4276°N, 73.1557°W)
Time: 02:09:45
(UTC+00:00)

ISS - Visible Passes

Search period start: 07 May 2021 00:00
Search period end: 17 May 2021 00:00
Orbit: 418 x 421 km, 51.6° (Epoch: 06 May)

Date Brightness Start Highest point End Pass type
(mag) Time Alt. Az. Time Alt. Az. Time Alt. Az.
07 May -1.0 06:14:10 19° NNE 06:14:10 19° NNE 06:15:31 10° NE visible
07 May -0.9 07:48:06 10° NW 07:50:07 15° N 07:52:08 10° NNE visible
08 May -1.1 07:01:09 13° NW 07:02:26 16° N 07:04:38 10° NNE visible
08 May -0.9 08:37:57 10° NNW 08:40:15 17° NNE 08:42:32 10° NE visible
09 May -1.0 06:15:10 18° N 06:15:10 18° N 06:17:15 10° NNE visible
09 May -0.8 07:50:30 10° NNW 07:52:34 15° N 07:54:39 10° NE visible
10 May -0.5 05:29:10 14° NNE 05:29:10 14° NNE 05:29:54 10° NE visible
10 May -0.7 07:02:55 10° NW 07:04:53 14° N 07:06:51 10° NE visible
10 May -1.4 08:39:43 10° NW 08:42:35 25° NNE 08:45:27 10° E visible
11 May -0.8 06:16:04 13° NNW 06:17:12 15° N 06:19:13 10° NNE visible
11 May -1.0 07:52:23 10° NNW 07:54:58 20° NNE 07:57:33 10° ENE visible
12 May -0.7 05:29:58 16° N 05:29:58 16° N 05:31:42 10° NNE visible
12 May -0.7 07:05:02 10° NNW 07:07:19 17° NNE 07:09:37 10° NE visible
12 May -2.7 08:41:26 10° NW 08:44:44 50° NNE 08:48:01 10° ESE visible
13 May -0.5 04:43:46 12° NNE 04:43:46 12° NNE 04:44:18 10° NNE visible
13 May -0.6 06:17:34 10° NNW 06:19:38 15° N 06:21:43 10° NE visible
13 May -1.9 07:54:05 10° NW 07:57:12 33° NNE 08:00:19 10° E visible
14 May -0.5 05:30:08 11° NNW 05:31:57 14° N 05:33:55 10° NE visible
14 May -1.4 07:06:46 10° NW 07:09:38 25° NNE 07:12:30 10° E visible
14 May -3.7 08:43:19 10° WNW 08:46:39 59° SW 08:49:59 10° SE visible
15 May -3.5 01:26:31 10° SSW 01:29:43 43° SE 01:32:56 10° ENE visible
15 May -1.7 03:03:37 10° W 03:06:37 29° NNW 03:09:37 10° NE visible
15 May -0.5 04:42:14 10° NW 04:44:15 15° N 04:46:15 10° NNE visible
15 May -1.0 06:19:26 10° NNW 06:22:01 20° NNE 06:24:36 10° ENE visible
15 May -3.7 07:55:51 10° NW 07:59:15 81° NE 08:02:37 10° ESE visible
16 May -2.7 00:39:34 10° SSW 00:42:23 25° SE 00:45:13 10° ENE visible
16 May -2.4 02:15:51 10° W 02:19:04 41° NNW 02:22:18 10° NE visible
16 May -0.6 03:54:22 10° NW 03:56:33 16° N 03:58:44 10° NNE visible
16 May -0.7 05:32:04 10° NNW 05:34:22 17° NNE 05:36:39 10° NE visible
16 May -2.9 07:08:28 10° NW 07:11:46 50° NNE 07:15:04 10° ESE visible
16 May -2.4 08:45:47 10° W 08:48:21 20° SW 08:50:54 10° S visible
